Location: The Saddle
(36.8333°N, 80.3417°W)
Time: 19:06:56
(UTC-05:00)

A-11 Canister half - Pass Details

Date: 17 December 2023
Orbit: 1526 x 1682 km, 47.3° (Epoch: 25 February)

Event Time Altitude Azimuth Distance (km) Brightness Sun altitude
Rises 14:35:27 0° 213° (SSW) 4,827 13.2 21.6°
Reaches altitude 10° 14:38:37 10° 209° (SSW) 3,862 13.3 21.2°
Maximum altitude 14:48:09 54° 135° (SE) 1,964 10.0 20.1°
Drops below altitude 10° 14:57:52 10° 62° (ENE) 3,945 10.7 18.9°
Sets 15:01:08 0° 59° (ENE) 4,937 11.1 18.5°
